Temperature
13 15 16 16 16 16 16 15 15 14 13 13 12 11 11 10 10 10 9 9 9 8 8 8 8 7 7 7 7 6 6 6 6 5 5 5 5 6 7 7 8 8 8
13 14 15 15 16 16 15 15 14 14 13 12 12 11 11 10 10 10 10 9 9 9 8 8 8 7 7 7 7 7 6 6 5 5 4 4 5 6 5 6 7 8 8
13 14 14 15 15 15 14 14 14 13 13 12 12 12 11 11 11 10 10 10 9 9 9 8 8 8 7 7 7 7 6 6 5 4 4 3 5 5 5 5 5 5 6
13 13 14 14 14 14 14 13 13 13 12 12 12 11 11 11 10 10 10 10 9 9 9 8 8 8 7 7 7 7 6 6 5 4 4 4 3 3 4 4 4 4 4
12 13 13 13 13 13 13 13 12 12 12 12 11 11 11 10 10 10 10 9 9 9 9 8 8 8 7 7 7 7 6 5 5 5 4 3 3 2 1 2 4 4 4
12 12 13 13 13 12 12 12 12 12 11 11 11 10 10 10 9 9 9 9 8 8 8 8 7 7 7 7 7 6 6 5 5 5 4 3 2 2 1 1 2 3 3
12 11 12 12 12 12 12 11 11 11 11 10 10 10 9 9 8 8 8 8 7 7 7 7 7 6 6 6 6 6 6 5 5 4 4 3 3 2 1 1 1 2 2
11 11 11 11 11 11 11 11 11 10 10 10 9 9 8 8 7 7 7 7 6 6 6 6 6 6 6 6 5 5 5 5 4 4 4 3 3 2 1 1 0 0 1
11 11 11 11 11 11 11 10 10 10 9 9 8 8 8 7 7 6 6 6 6 6 6 6 5 5 5 5 5 4 4 4 3 3 3 2 2 2 1 0 -0 -1 -1
10 10 10 10 10 10 10 10 9 9 9 8 8 7 7 6 6 6 6 5 5 5 5 5 5 5 5 4 4 4 3 3 2 2 1 1 1 1 0 -0 -1 -1 -2
10 10 10 10 10 10 9 9 9 8 8 7 7 6 6 6 5 5 5 5 5 4 4 4 4 4 4 3 3 3 2 1 1 1 0 0 0 -0 -1 -1 -1 -2 -2
10 9 9 9 9 9 9 8 8 7 7 6 6 6 5 5 5 5 4 4 4 4 4 3 3 3 3 2 2 1 1 0 0 -0 -0 -1 -1 -1 -1 -2 -2 -2 -2
9 9 9 9 8 8 8 7 7 6 6 6 5 5 5 4 4 4 4 4 3 3 3 2 2 2 2 1 1 1 0 -0 -0 -1 -1 -1 -2 -2 -2 -2 -2 -2 -3
8 8 8 8 8 7 7 6 6 6 5 5 4 4 4 4 4 3 3 3 3 2 2 2 1 1 1 1 0 -0 -0 -1 -1 -1 -2 -2 -2 -2 -3 -3 -3 -3 -3
8 8 7 7 7 6 6 6 5 5 5 4 4 4 3 3 3 3 3 2 2 2 1 1 1 0 -0 -0 -1 -1 -2 -2 -2 -2 -3 -3 -3 -3 -3 -3 -3 -3 -3
7 7 7 7 6 6 5 5 4 4 4 4 4 3 3 3 3 2 2 2 1 1 0 -0 -1 -1 -1 -1 -2 -2 -3 -3 -3 -3 -3 -3 -3 -3 -3 -3 -3 -3 -3
7 7 6 6 5 5 4 4 4 4 4 3 3 3 2 2 2 1 1 1 0 -0 -1 -1 -2 -2 -2 -2 -3 -3 -4 -4 -4 -4 -4 -4 -4 -4 -4 -3 -3 -3 -3
6 6 6 5 4 4 4 4 3 3 3 3 3 2 2 1 1 0 0 -0 -1 -1 -2 -2 -3 -3 -3 -3 -4 -4 -4 -4 -4 -4 -4 -4 -4 -4 -4 -4 -4 -4 -4
6 5 5 4 4 4 3 3 3 3 2 2 2 1 1 0 -0 -0 -1 -1 -2 -2 -3 -3 -3 -4 -3 -4 -4 -5 -5 -5 -5 -5 -4 -4 -4 -4 -4 -4 -4 -4 -4
5 5 4 4 3 3 3 3 2 2 2 1 1 1 0 -0 -1 -1 -2 -2 -3 -3 -3 -4 -4 -4 -4 -4 -5 -5 -5 -5 -5 -5 -5 -5 -4 -4 -4 -4 -4 -4 -4
4 4 4 3 3 3 2 2 2 1 1 1 0 0 -0 -1 -1 -2 -2 -3 -3 -4 -4 -5 -5 -5 -5 -5 -5 -5 -5 -5 -5 -5 -5 -5 -5 -5 -4 -4 -4 -4 -4
4 3 3 3 3 2 2 1 1 1 0 0 -0 -0 -1 -1 -2 -3 -3 -3 -4 -5 -5 -5 -6 -6 -6 -6 -6 -5 -5 -5 -5 -5 -5 -5 -5 -5 -5 -4 -4 -4 -4
3 3 3 3 2 2 1 1 1 0 -0 -0 -1 -1 -2 -2 -3 -3 -4 -4 -5 -5 -6 -6 -6 -6 -6 -6 -6 -6 -6 -6 -5 -5 -5 -5 -5 -5 -5 -5 -5 -5 -5
3 2 2 2 2 2 1 1 0 -0 -1 -1 -1 -2 -3 -3 -3 -4 -5 -5 -6 -6 -6 -6 -6 -6 -6 -6 -6 -6 -6 -6 -5 -5 -5 -5 -5 -5 -5 -5 -5 -5 -5
2 2 2 1 1 1 1 0 -0 -1 -1 -2 -2 -3 -3 -4 -4 -5 -5 -6 -6 -6 -7 -7 -6 -6 -6 -6 -6 -6 -6 -6 -6 -6 -5 -5 -5 -6 -6 -6 -6 -6 -6
2 2 1 1 1 0 0 -0 -1 -1 -2 -2 -3 -3 -4 -4 -5 -5 -6 -6 -6 -6 -7 -7 -7 -7 -6 -6 -6 -6 -6 -6 -6 -6 -6 -6 -6 -6 -6 -6 -6 -6 -6
Wind_Speed
11 12 12 11 10 9 7 6 6 7 7 6 6 6 7 7 8 11 14 15 16 16 16 14 15 13 12 14 15 14 14 13 11 11 12 16 18 19 17 17 17 20 23
12 12 12 12 12 10 8 6 5 5 6 5 5 4 5 6 7 9 12 14 15 16 15 15 13 13 12 14 15 14 12 11 10 8 9 10 12 13 14 15 15 16 17
11 11 12 12 12 11 8 6 5 4 4 5 4 3 3 4 5 7 7 11 14 15 16 16 15 13 13 13 14 14 15 13 11 11 10 9 8 8 7 11 12 13 13
10 10 11 12 11 10 8 8 6 5 4 4 4 5 4 5 5 5 6 7 10 12 14 15 16 14 13 14 14 14 13 14 13 12 13 15 12 10 10 9 11 13 14
9 10 10 10 9 9 8 8 7 6 4 3 3 4 5 5 5 6 7 7 7 9 11 13 13 13 12 15 15 15 15 13 15 13 12 14 14 16 13 16 16 15 14
9 9 9 9 9 8 8 7 8 7 4 2 1 2 4 5 6 7 7 6 6 6 8 10 11 12 12 13 14 15 16 16 17 15 14 14 13 12 14 17 18 18 16
9 9 9 8 8 8 7 7 7 6 5 3 2 2 3 5 6 7 7 7 6 6 8 7 9 10 11 13 13 14 15 17 18 17 16 15 16 16 16 17 19 20 18
9 8 8 7 7 7 6 6 6 5 5 4 3 3 3 3 4 6 6 7 7 8 9 9 10 12 13 13 13 13 15 15 17 18 19 16 16 16 16 17 17 19 20
9 8 8 7 6 5 5 5 4 4 4 4 4 4 4 4 5 7 7 7 8 8 10 11 12 12 13 13 14 13 16 16 16 17 19 17 16 16 16 16 16 17 19
9 8 7 6 5 4 4 4 4 4 4 4 4 4 5 6 7 8 9 10 10 10 12 12 13 14 14 14 14 15 15 17 17 15 18 18 16 16 16 16 16 17 18
10 8 6 5 4 4 3 3 3 3 4 4 5 6 6 7 8 8 10 10 11 12 13 13 14 15 16 16 15 16 17 18 18 18 19 20 20 17 16 16 16 16 17
8 7 6 5 3 3 2 3 3 3 4 5 6 7 7 8 9 10 11 12 13 13 14 14 15 16 16 16 17 18 18 18 19 19 20 21 17 20 17 16 18 17 18
8 7 5 3 2 1 2 3 3 4 5 6 7 8 9 10 11 12 13 13 14 15 15 15 16 16 16 17 17 18 19 19 19 20 20 20 19 20 17 18 17 16 16
7 6 4 2 1 2 2 3 4 5 6 7 8 10 11 11 12 13 14 14 15 16 16 16 17 17 16 16 17 17 18 19 19 19 19 20 19 20 20 18 19 17 17
6 4 2 0 1 2 3 4 5 6 7 9 10 11 11 12 13 14 15 15 16 16 17 17 18 17 15 14 14 15 17 18 19 19 19 20 22 24 21 17 16 16 16
5 3 1 1 2 3 5 5 6 7 8 10 11 11 12 13 14 15 16 17 17 17 17 18 18 18 15 20 24 21 19 19 18 18 18 19 21 24 27 30 29 25 18
4 3 1 1 3 4 5 7 8 9 9 10 11 12 13 14 15 16 17 17 18 18 18 18 18 19 20 23 25 25 21 20 19 18 18 16 17 21 18 22 26 26 29
4 2 2 2 3 4 6 7 8 9 10 11 12 12 13 14 16 17 17 18 17 17 18 18 19 19 20 24 25 25 21 20 19 18 18 18 18 17 17 15 16 18 19
3 2 2 3 4 5 7 8 9 10 11 12 13 13 14 15 16 18 18 18 18 18 18 18 19 20 20 22 24 24 17 16 18 17 17 18 19 22 25 18 17 18 17
2 2 2 4 5 6 7 9 11 12 12 13 14 14 15 16 17 18 19 18 17 18 18 18 18 19 20 22 23 24 14 15 15 15 16 20 21 24 25 18 16 17 16
2 2 4 5 7 7 8 10 12 13 13 14 15 15 15 16 17 17 17 17 17 18 18 18 17 18 19 21 22 22 14 14 15 14 13 13 21 24 25 23 17 19 19
3 4 5 7 8 8 9 12 13 14 14 14 15 16 16 15 15 17 17 17 17 17 17 17 17 15 15 17 19 23 22 21 17 15 14 14 22 25 26 21 21 24 21
4 5 7 9 10 10 10 13 14 14 14 15 16 17 17 16 15 16 17 16 15 14 14 14 15 15 14 15 21 23 24 24 18 15 21 24 27 25 19 20 22 19 12
5 6 8 10 12 12 12 13 14 14 15 16 17 16 16 16 16 14 13 13 14 14 14 15 15 15 15 14 13 14 16 18 17 15 18 23 23 18 17 17 14 10 10
6 7 9 11 14 14 14 14 14 14 15 16 16 16 15 16 15 14 13 15 15 15 17 15 15 16 16 17 23 21 16 15 15 16 13 11 10 10 9 10 9 9 8
8 9 11 13 14 15 16 15 15 14 15 15 15 13 13 14 14 15 15 16 18 24 25 25 23 19 22 27 27 27 26 26 24 18 12 11 10 10 10 9 9 8 8
Wind_Direction
61 59 63 73 83 90 105 128 155 174 182 187 198 211 225 231 235 239 242 242 242 242 241 245 250 247 244 248 251 253 256 256 259 268 273 267 257 253 250 249 249 248 245
74 66 68 71 75 80 88 102 127 156 176 186 195 213 231 242 246 245 247 246 246 246 244 245 249 249 249 252 254 253 254 257 247 249 276 283 277 251 242 244 245 248 247
85 78 73 72 74 73 75 86 103 132 166 181 187 195 223 244 245 247 250 250 249 248 246 248 251 252 250 252 253 250 247 252 250 235 245 266 273 298 252 237 240 242 243
96 88 84 77 74 73 77 84 93 107 135 171 197 214 234 252 267 274 269 269 260 256 253 253 253 255 253 253 254 251 249 249 253 249 237 244 262 274 282 257 244 245 248
109 100 92 88 83 80 81 84 90 92 107 153 201 235 257 275 288 291 285 284 274 263 259 257 256 256 255 255 256 255 251 246 248 250 248 247 250 251 257 271 271 263 253
124 114 108 103 94 88 84 86 88 85 87 104 160 254 283 294 300 301 301 298 290 278 268 261 259 258 257 258 257 257 254 251 250 250 249 249 248 247 249 261 268 270 267
143 134 128 119 107 95 87 85 83 76 69 65 47 347 311 305 303 307 307 304 300 294 290 277 268 264 261 260 260 259 257 254 252 251 250 249 249 252 256 263 270 273 272
155 145 137 129 117 103 92 84 76 68 55 44 28 5 339 316 310 308 303 299 296 296 297 290 279 274 272 268 264 261 259 257 255 254 253 253 252 251 250 255 265 273 275
163 154 145 137 124 107 88 74 65 55 40 25 7 354 340 323 313 308 302 298 296 297 296 292 287 282 278 274 271 265 264 262 260 259 258 256 256 254 253 253 253 259 272
165 158 149 136 119 100 86 69 53 40 23 7 355 334 326 321 313 307 305 302 301 299 296 293 290 287 283 279 275 271 269 269 266 264 263 261 260 257 254 253 252 251 256
165 160 149 134 118 101 81 57 38 21 6 352 337 327 324 320 313 307 305 304 302 300 297 295 292 290 287 285 280 275 274 272 272 269 266 264 263 262 259 256 253 252 251
157 151 143 137 125 96 59 30 12 359 349 339 328 324 320 317 312 310 308 306 302 300 298 295 292 290 288 286 282 280 278 276 275 274 271 269 267 263 262 259 257 255 252
152 147 144 139 116 61 16 355 346 339 333 327 320 317 315 314 312 310 308 305 302 299 297 294 291 289 288 286 284 282 280 278 277 276 274 272 270 267 264 262 260 259 257
153 149 144 132 74 0 339 332 331 329 323 317 314 312 312 310 308 306 304 302 300 297 296 294 291 289 286 283 282 282 281 279 277 275 272 270 268 266 266 265 263 261 260
156 153 153 143 340 335 328 325 320 318 315 310 309 308 308 306 304 302 301 301 299 296 294 293 291 289 286 280 277 277 277 276 276 274 272 269 267 265 265 263 261 258 257
167 167 175 263 317 323 320 314 312 312 308 304 303 305 305 304 303 302 302 301 299 297 295 293 293 291 287 286 287 286 284 281 278 276 274 273 271 269 269 268 266 261 256
173 182 212 286 306 310 308 306 308 307 303 299 300 303 303 302 303 303 302 301 300 299 297 295 294 292 290 291 291 290 289 286 283 280 278 277 274 273 270 271 272 272 270
179 197 244 280 295 302 302 302 302 300 298 297 299 302 303 302 303 304 303 302 302 300 298 296 296 294 293 294 295 296 293 287 284 281 279 278 277 275 273 268 267 266 266
181 213 257 277 289 297 301 301 298 298 296 296 300 304 305 304 304 304 304 304 303 300 299 298 297 296 296 296 297 297 294 289 286 284 281 279 279 278 279 276 271 270 267
183 227 263 280 287 298 303 298 298 300 300 303 304 304 303 302 301 302 303 302 301 299 299 296 296 295 295 296 298 299 294 292 291 288 283 279 279 280 281 278 275 274 274
210 252 277 285 292 300 300 295 297 300 303 303 302 301 300 300 301 301 300 301 301 299 298 297 296 296 295 296 296 297 296 293 292 291 288 283 282 282 283 282 278 275 277
243 271 284 291 297 299 295 294 298 303 305 303 301 300 301 302 300 300 301 301 302 301 301 300 301 299 298 296 297 298 298 298 295 293 291 288 288 287 287 286 282 283 284
262 275 284 292 297 299 297 295 300 305 304 302 300 301 302 301 300 299 301 302 301 299 300 300 300 301 300 299 299 300 300 299 296 291 290 292 294 294 291 288 288 288 283
270 280 286 291 297 303 301 296 299 302 301 300 301 301 301 301 300 298 297 296 298 298 298 299 299 300 301 301 303 302 302 300 297 293 292 291 290 287 284 286 286 278 272
278 282 284 289 293 299 300 301 302 303 301 300 300 300 300 299 300 298 294 294 290 289 293 295 297 299 300 299 303 305 304 303 299 302 297 292 289 288 286 285 281 277 273
281 284 286 289 294 299 300 302 303 302 299 298 299 300 300 299 299 300 298 289 286 291 291 290 291 293 293 299 304 306 307 307 307 306 298 296 294 294 293 292 287 281 277
Height
1523 1521 1520 1520 1520 1521 1522 1523 1524 1525 1526 1528 1529 1530 1532 1533 1534 1534 1535 1535 1535 1535 1535 1535 1535 1534 1533 1532 1531 1530 1528 1527 1526 1522 1518 1515 1513 1509 1507 1506 1506 1506 1505
1526 1524 1524 1523 1523 1523 1524 1524 1525 1525 1526 1527 1528 1529 1530 1531 1531 1531 1531 1531 1531 1530 1530 1529 1528 1528 1526 1525 1524 1523 1521 1520 1519 1517 1514 1509 1506 1501 1497 1496 1496 1495 1495
1528 1527 1526 1526 1526 1526 1526 1526 1526 1527 1527 1528 1528 1529 1529 1529 1529 1529 1528 1527 1527 1526 1525 1524 1523 1521 1520 1518 1517 1516 1514 1512 1512 1510 1508 1506 1500 1497 1491 1488 1487 1486 1485
1529 1528 1528 1528 1528 1528 1528 1528 1528 1528 1528 1528 1528 1528 1528 1528 1527 1526 1525 1524 1523 1521 1520 1519 1517 1516 1514 1512 1511 1510 1507 1505 1503 1503 1499 1498 1495 1493 1485 1483 1480 1477 1475
1530 1529 1529 1529 1529 1529 1529 1530 1529 1529 1529 1529 1528 1528 1527 1527 1525 1524 1522 1521 1519 1517 1515 1514 1512 1510 1508 1506 1504 1503 1500 1498 1495 1494 1492 1489 1486 1484 1480 1472 1473 1471 1468
1530 1530 1530 1530 1530 1531 1531 1530 1530 1530 1529 1528 1528 1527 1526 1524 1523 1521 1519 1517 1515 1513 1511 1509 1507 1504 1502 1500 1498 1495 1493 1490 1488 1485 1483 1481 1478 1475 1472 1466 1462 1461 1459
1529 1529 1530 1530 1531 1531 1531 1531 1530 1529 1529 1527 1526 1525 1523 1522 1520 1517 1515 1513 1511 1509 1506 1504 1501 1499 1496 1493 1491 1488 1485 1483 1479 1477 1474 1471 1469 1467 1464 1460 1454 1451 1448
1528 1528 1529 1530 1530 1530 1530 1530 1529 1528 1527 1526 1524 1522 1520 1518 1516 1514 1511 1509 1506 1503 1501 1498 1495 1492 1489 1486 1483 1479 1476 1474 1470 1467 1465 1462 1459 1457 1454 1451 1448 1441 1436
1526 1527 1528 1528 1529 1529 1529 1528 1527 1526 1525 1523 1521 1519 1517 1515 1512 1510 1507 1504 1501 1498 1495 1492 1488 1485 1482 1478 1475 1470 1467 1464 1461 1458 1455 1452 1449 1447 1444 1442 1439 1436 1428
1524 1525 1526 1527 1527 1527 1527 1526 1525 1524 1522 1520 1518 1515 1513 1510 1508 1505 1502 1499 1495 1492 1488 1485 1481 1477 1474 1470 1466 1461 1458 1455 1451 1448 1445 1442 1439 1436 1434 1431 1429 1426 1421
1521 1523 1524 1524 1525 1525 1524 1523 1522 1520 1518 1516 1514 1511 1508 1506 1503 1499 1496 1493 1489 1485 1481 1477 1473 1469 1465 1461 1457 1452 1449 1444 1441 1438 1435 1431 1429 1426 1423 1421 1418 1415 1413
1519 1520 1521 1522 1522 1522 1521 1520 1519 1517 1515 1512 1510 1507 1504 1501 1497 1494 1490 1486 1482 1478 1474 1469 1464 1460 1455 1451 1447 1442 1439 1435 1431 1428 1424 1420 1418 1415 1413 1410 1407 1405 1402
1516 1518 1519 1520 1520 1519 1518 1517 1515 1513 1510 1508 1505 1502 1499 1496 1492 1488 1484 1480 1475 1470 1466 1461 1455 1450 1446 1441 1437 1433 1428 1424 1420 1417 1413 1410 1407 1404 1402 1399 1396 1394 1392
1514 1515 1517 1517 1516 1516 1514 1513 1511 1509 1506 1504 1501 1497 1494 1490 1486 1481 1477 1472 1467 1462 1457 1452 1446 1441 1436 1431 1427 1422 1417 1413 1409 1406 1402 1399 1396 1393 1391 1388 1386 1384 1381
1511 1513 1513 1514 1513 1512 1511 1509 1507 1504 1502 1499 1495 1492 1488 1484 1479 1474 1469 1464 1459 1453 1448 1442 1437 1432 1426 1421 1417 1412 1407 1402 1398 1394 1391 1388 1385 1382 1380 1378 1375 1373 1370
1509 1510 1510 1510 1510 1508 1507 1505 1502 1500 1497 1493 1490 1486 1481 1477 1472 1467 1461 1456 1450 1444 1439 1433 1427 1422 1417 1412 1407 1403 1397 1392 1388 1383 1380 1377 1374 1371 1369 1367 1365 1363 1360
1506 1507 1507 1507 1506 1504 1503 1500 1498 1495 1492 1488 1484 1479 1474 1469 1464 1459 1453 1447 1441 1436 1430 1424 1418 1412 1407 1402 1397 1393 1388 1383 1378 1374 1370 1367 1364 1361 1358 1355 1353 1351 1350
1503 1503 1503 1503 1502 1500 1498 1496 1493 1490 1486 1482 1477 1473 1467 1462 1457 1451 1445 1439 1433 1427 1421 1415 1409 1403 1397 1393 1388 1383 1378 1373 1368 1365 1361 1357 1354 1352 1349 1345 1342 1339 1337
1500 1500 1500 1499 1498 1496 1494 1491 1488 1484 1480 1475 1471 1466 1461 1455 1449 1443 1438 1431 1425 1418 1412 1406 1400 1394 1388 1384 1379 1375 1369 1364 1359 1356 1352 1349 1345 1342 1340 1337 1333 1329 1326
1497 1497 1496 1495 1494 1492 1489 1485 1482 1478 1474 1469 1464 1459 1454 1448 1442 1436 1429 1423 1417 1410 1403 1397 1391 1385 1380 1375 1371 1367 1362 1356 1352 1347 1344 1340 1337 1334 1331 1328 1324 1320 1317
1493 1493 1492 1491 1489 1487 1483 1480 1476 1472 1467 1462 1457 1452 1446 1441 1434 1428 1421 1415 1408 1401 1395 1388 1383 1378 1372 1367 1364 1360 1355 1350 1344 1340 1335 1332 1329 1325 1322 1320 1316 1312 1309
1490 1489 1488 1487 1484 1481 1477 1473 1470 1465 1460 1455 1449 1444 1439 1433 1426 1420 1413 1407 1401 1393 1387 1380 1375 1370 1365 1361 1356 1352 1348 1344 1338 1332 1328 1324 1320 1317 1313 1310 1306 1304 1301
1486 1485 1483 1481 1479 1476 1472 1467 1463 1458 1453 1447 1442 1436 1431 1425 1419 1412 1406 1399 1393 1387 1380 1374 1368 1362 1358 1354 1349 1345 1340 1335 1331 1325 1320 1316 1312 1308 1304 1301 1298 1295 1292
1482 1480 1478 1475 1472 1469 1465 1461 1456 1451 1445 1439 1434 1428 1422 1416 1411 1405 1399 1392 1386 1380 1374 1368 1362 1356 1351 1346 1342 1337 1332 1327 1322 1317 1312 1308 1303 1300 1296 1292 1289 1287 1284
1477 1475 1472 1469 1466 1462 1458 1454 1449 1443 1437 1432 1426 1421 1415 1409 1402 1397 1392 1385 1379 1375 1368 1362 1356 1350 1343 1339 1336 1331 1325 1320 1315 1310 1304 1300 1296 1292 1289 1285 1282 1280 1277
1472 1469 1466 1463 1459 1455 1451 1447 1442 1436 1430 1424 1419 1413 1407 1401 1395 1388 1382 1376 1372 1366 1361 1355 1350 1343 1338 1333 1328 1323 1318 1313 1308 1303 1297 1293 1290 1286 1283 1279 1276 1274 1272